395P/Catalina-NEAT (2021)

Japanese version
Home page
Updated on May 17, 2021

---------------------------------------------------------------------

* Profile

Designation 395P/2020 H1
Recovery Date April 26, 2020
Magnitude 21.0 mag
Recoverer Erwin Schwab (Egelsbach, Germany), D. Abreu (European Space Agency's Optical Ground Station, Tenerife)

* Pictures

* Orbital Elements

Epoch 2021 Dec. 12.0 TT = JDT 2459560.5
T 2021 Dec. 30.45423 TT                                 Rudenko
q   4.0648843            (2000.0)            P               Q
n   0.05865862     Peri.   89.84941     +0.68739332     +0.72521275
a   6.5601661      Node   223.66379     -0.68702035     +0.63164944
e   0.3803687      Incl.    3.27621     -0.23557049     +0.27401726
P  16.8
From 240 observations 2005 May 12-2021 Apr. 24, mean residual 0".8.

* Magnitudes Graph

        m1 = 9.5 + 5 log d + 10.0 log r

---------------------------------------------------------------------

The orbital elements are published on M.P.E.C. 2021-J28.
The magnitudes graphs are made with Comet for Windows.

---------------------------------------------------------------------

Copyright(C) Seiichi Yoshida (comet@aerith.net). All rights reserved.